Location: Green River State Wildlife Area
(41.6390°N, 89.5080°W)
Time: 19:00:52
(UTC-05:00)

Daily predictions for brighter satellites

Satellite Brightness Start Highest point End
(mag) Time Altitude Azimuth Time Altitude Azimuth Time Altitude Azimuth
NOAA 12 4.2 19:33:16 10° SSE 19:38:35 87° WSW 19:43:56 10° NNW
RESURS DK-1 3.1 19:36:52 10° N 19:40:40 34° ENE 19:44:26 10° SE
Cosmos 1844 3.8 19:38:16 10° S 19:43:56 65° ESE 19:49:42 10° NNE
Abrixas 4.0 19:41:35 10° NW 19:44:01 24° NNE 19:46:25 10° ENE
USA 186 3.2 19:50:05 10° E 19:50:38 11° ENE 19:51:18 10° NE
Cosmos 1821 Rocket 4.0 19:50:25 10° S 19:56:47 79° E 20:03:09 10° N
Cosmos 1812 Rocket 3.5 19:53:40 10° S 19:58:04 70° E 20:02:27 10° NNE
Cosmos 2344 3.6 19:53:40 10° SSW 20:01:16 72° ESE 20:09:43 10° NE
USA 215 3.9 19:55:48 10° ENE 20:01:30 31° SE 20:07:09 10° S
GP-B 4.4 19:58:56 10° SE 20:02:11 20° ENE 20:05:26 10° NNE
Spot 2 Rocket 3.6 19:57:40 10° SSE 20:02:40 59° ENE 20:07:42 10° N
CZ-2D R/B 3.7 19:59:17 10° SE 20:02:54 40° ENE 20:06:34 10° N
Resurs 01 Rocket 1.6 20:00:35 10° SSE 20:04:55 63° ENE 20:09:19 10° N
Cosmos 1805 3.9 20:04:56 10° SSE 20:08:24 32° E 20:11:54 10° NNE
Cosmos 2150 Rocket 4.2 20:03:24 10° SSW 20:08:33 76° WNW 20:13:43 10° NNE
Cosmos 1076 Rocket 4.5 20:05:58 10° NNE 20:09:36 27° ENE 20:12:26 14° SE
Meteor 1-22 Rocket 4.3 20:07:16 10° S 20:13:04 84° E 20:19:07 10° N
Cosmos 1437 Rocket 3.5 20:09:19 10° SSW 20:13:15 58° WNW 20:17:18 10° N
Cosmos 1605 Rocket 4.0 20:08:40 10° S 20:14:46 60° E 20:21:00 10° NNE
ALOS 2.7 20:10:54 10° S 20:15:31 65° WSW 20:20:12 10° NNW
Cosmos 990 Rocket 4.1 20:10:52 10° SSW 20:16:07 85° WNW 20:21:25 10° NNE
SJ-6B 4.1 20:13:39 10° S 20:17:10 40° W 20:20:43 10° NNW
Envisat 3.8 20:17:16 15° ESE 20:20:43 32° ENE 20:25:13 10° N
Helios 1B rocket 2.9 20:17:40 10° NNE 20:21:32 38° E 20:25:22 10° SSE
In-Cosmos 22 4.0 20:16:22 10° N 20:21:42 69° E 20:26:56 10° SSE
Cosmos 1470 4.4 20:23:17 17° ENE 20:23:17 17° ENE 20:25:14 10° NE
SAR-Lupe-4 3.8 20:20:27 14° SE 20:23:15 47° ENE 20:26:43 10° N
CZ-4B DEB 3.7 20:22:45 25° E 20:23:17 26° ENE 20:25:57 10° NNE
Cosmos 1844 Rocket 3.9 20:18:45 10° SW 20:24:09 46° WNW 20:29:36 10° NNE
Cosmos 1125 Rocket 3.8 20:22:15 10° S 20:27:04 40° ESE 20:31:55 10° NE
Helios 1A 3.1 20:23:52 13° SSE 20:27:26 52° ENE 20:31:31 10° N
Cosmos 2123 Rocket 4.0 20:21:23 10° N 20:27:45 89° WSW 20:34:02 10° S
Lacrosse 4 Rocket 3.4 20:27:52 10° WSW 20:31:28 30° NW 20:35:05 10° N
Cosmos-2242 3.8 20:33:21 27° ESE 20:33:50 28° E 20:37:28 10° NNE
Cosmos 1833 Rocket 3.3 20:29:10 10° N 20:34:23 37° ENE 20:36:55 25° ESE
Geosat 3.9 20:29:44 10° NNE 20:34:47 83° ESE 20:39:49 10° SSW
USA 267 4.5 20:30:04 13° ENE 20:34:50 29° NNE 20:40:19 10° NW
Cosmos 2278 Rocket 2.2 20:30:20 10° SSW 20:36:01 85° WNW 20:41:44 10° NNE
Cosmos 1758 3.2 20:35:11 10° S 20:39:06 66° E 20:43:04 10° NNE
Spot 1 4.2 20:35:29 12° SSE 20:39:47 76° ENE 20:44:40 10° N
Lacrosse 5 2.0 20:35:46 10° SW 20:40:50 74° NW 20:45:54 10° NE
SAR-Lupe-1 3.9 20:40:50 25° SSE 20:42:47 74° ENE 20:46:23 10° N
ERS-1 Rocket 3.8 20:43:28 27° E 20:44:31 30° ENE 20:48:52 10° N
Cosmos 1153 Rocket 4.5 20:39:04 10° S 20:45:24 71° E 20:51:48 10° NNE
H-2A R/B 4.2 20:42:07 10° SSW 20:45:46 40° W 20:49:30 10° NNW
SL-27 R/B 4.1 20:43:20 10° NW 20:46:38 35° WSW 20:49:57 10° S
Timation 2 Rocket 4.3 20:41:12 10° NNW 20:47:17 46° ENE 20:49:54 30° ESE
Cosmos 1953 2.2 20:44:33 10° S 20:48:37 79° E 20:52:42 10° N
Cosmos 1939 Rocket 3.2 20:48:09 39° ESE 20:49:02 46° ENE 20:53:01 10° N
Cosmos 2297 3.7 20:43:58 10° S 20:49:32 58° ESE 20:55:09 10° NNE
Meteor 1-4 Rocket 2.3 20:46:47 10° S 20:50:15 83° E 20:53:44 10° N
Meteor 1-29 2.8 20:48:12 10° NNE 20:51:41 70° ESE 20:53:40 23° S
Cosmos 1818 3.5 20:47:32 10° NNW 20:53:00 74° NE 20:55:28 33° SE
SeaSat 1 4.5 20:50:12 10° SSW 20:54:18 26° WSW 20:58:25 10° NW
Cosmos 1544 3.5 20:50:44 10° SSW 20:54:19 63° W 20:57:58 10° N
COSMOS 2487 2.9 20:50:55 10° N 20:54:10 45° NE 20:54:10 45° NE
H-2A R/B 4.5 20:48:23 10° SW 20:54:30 43° SSE 21:09:35 24° ESE
H-2A R/B 4.5 20:48:23 10° SW 20:54:30 43° SSE 21:09:36 24° ESE
H-2A R/B 4.5 20:48:23 10° SW 20:54:30 43° SSE 21:09:38 24° ESE
H-2A R/B 4.5 20:48:24 10° SW 20:54:30 43° SSE 21:09:34 24° ESE
H-2A R/B 4.5 20:48:23 10° SW 20:54:31 43° SSE 21:09:38 24° ESE
H-2A R/B 4.5 20:48:23 10° SW 20:54:31 43° SSE 21:09:32 24° ESE
H-2A R/B 4.5 20:48:23 10° SW 20:54:31 43° SSE 21:09:37 24° ESE
H-2A R/B 4.5 20:48:23 10° SW 20:54:31 43° SSE 21:09:39 24° ESE
H-2A R/B 4.5 20:48:23 10° SW 20:54:31 43° SSE 21:09:34 24° ESE
H-2A R/B 4.5 20:48:23 10° SW 20:54:31 43° SSE 21:09:36 24° ESE
H-2A R/B 4.5 20:48:23 10° SW 20:54:31 43° SSE 21:09:35 24° ESE
ATLAS 5 CENTAUR R/B 3.3 20:51:43 10° S 20:53:19 20° SSE 20:53:19 20° SSE
OE (NEXTSAT) 4.4 20:56:01 10° WSW 20:59:37 76° NNW 21:00:10 59° NE
Cosmos 1269 Rocket 3.9 20:59:53 10° NNW 21:05:12 79° ENE 21:07:14 38° SSE
Cosmos 2082 Rocket 2.1 21:00:19 10° NNW 21:06:02 72° ENE 21:08:04 41° SE
Cosmos 1408 Rocket 3.5 21:04:32 10° N 21:09:01 87° ENE 21:10:23 45° S
CZ-3B DEB 3.5 21:01:05 10° WSW 21:10:42 47° NW 21:15:02 11° NE
Lacrosse 5 rocket 2.6 21:07:44 10° NNW 21:10:52 27° NNE 21:10:52 27° NNE
Cosmos 1459 Rocket 3.9 21:06:01 10° S 21:12:13 67° E 21:18:22 10° NNE
Tiangong 1 3.2 21:10:02 10° W 21:11:36 19° SW 21:11:36 19° SW
Cosmos 1271 Rocket 3.3 21:14:48 46° NNE 21:14:48 46° NNE 21:17:45 10° NNE
Cosmos 2173 Rocket 3.9 21:10:12 14° S 21:15:32 69° E 21:21:45 10° NNE
Abrixas 4.5 21:16:39 10° WNW 21:18:09 28° WNW 21:18:09 28° WNW
USA 186 4.4 21:21:39 13° W 21:21:39 13° W 21:22:30 10° WNW
Cosmos 1867 3.6 21:22:46 10° SW 21:28:13 80° WNW 21:33:43 10° NNE
ARGOS 4.0 21:29:20 35° NE 21:29:20 35° NE 21:33:22 10° N
MetOp-A 4.3 21:32:12 54° NE 21:32:12 54° NE 21:37:05 10° N
Cosmos 372 Rocket 4.2 21:28:53 10° SSW 21:33:57 67° WNW 21:39:06 10° NNE
Cosmos 1674 3.9 21:34:20 10° NNW 21:37:52 38° W 21:37:53 38° W
USA 215 3.4 21:38:18 10° NE 21:44:50 74° NW 21:51:20 10° WSW
Cosmos 2016 Rocket 3.8 21:45:35 59° S 21:46:53 87° E 21:53:05 10° N
H-2A R/B 3.5 21:55:19 29° NNE 21:55:19 29° NNE 21:58:16 10° N
Cosmos 1725 Rocket 4.2 21:54:40 57° NE 21:54:40 57° NE 21:59:44 10° NNE
Meteor 2-17 Rocket 4.4 21:54:52 64° SSW 21:55:53 82° W 22:02:04 10° N
CZ-3 Stage 3 3.8 21:42:24 10° W 22:02:58 40° SSW 22:03:52 39° S
BREEZE-M DEB (TANK) 3.9 22:00:45 10° WSW 22:05:08 88° NNW 22:23:12 10° ENE
Tsikada Rocket 4.1 22:00:34 10° N 22:05:56 67° NNE 22:05:56 67° NNE
USA 267 3.3 22:17:25 67° NNE 22:17:25 67° NNE 22:23:37 10° NW
Cosmos 1833 Rocket 4.0 22:13:16 10° NW 22:18:12 32° WSW 22:18:39 32° WSW
ERS-1 Rocket 4.4 22:23:28 32° W 22:23:28 32° W 22:27:44 10° NNW
Lacrosse 5 4.1 22:20:42 10° WNW 22:24:34 21° NNW 22:26:34 17° N
SPOT 5 4.1 22:26:25 44° NW 22:26:25 44° NW 22:30:13 10° NNW
Cosmos 2082 Rocket 4.5 22:46:12 10° WNW 22:49:24 16° W 22:49:58 15° WSW
Terra 4.4 22:56:12 16° N 22:56:12 16° N 22:57:10 10° N
